Find Hispasat 1A

NORAD ID: 22116 Int'l Des: 1992-060 Owner: HISP Country: E operational
HEOCIRCULAR

リアルタイム位置

3D地球を読み込み中...

Hispasat 1Aについて

説明を読み込み中...

次回通過

Passes for default location (London). Set your location on the main map for personalized predictions.

高度履歴

Loading altitude history...

軌道要素

1 22116U 92060A 26131.06237605 -.00000246 00000-0 00000+0 0 9993
2 22116 14.1693 10.5419 0005942 330.8917 26.6509 0.99316128119120
Epoch: May 11, 2026 • Age: 11 hours

現在のステータス

高度 36080.4 km
速度 3.06 km/s
衛星直下点 3.81°N, 115.61°E
打ち上げ日 Sep 10, 1992
運用期間 33.6 years
タイプ other

技術仕様

分類 Payload
質量 2194.00 kg
乾燥質量 1013.00 kg
総質量 2194.00 kg
長さ 2.00 m
直径 1.70 m
スパン 22.30 m
形状 Box + 2 Pan
製造者 MMST/BAES
バスタイプ Eurostar 2000
フェーズステータス In Orbit
所有者/国 HISP/E

Most Searched